Pineville, WV

12:39 PM EDT on September 23, 2019 (GMT -0400)
Pineville

Weather History for KI16 - August, 2019

Change the Weather History Date:

Thursday, August 22, 2019

  Actual Average (KBKW) Record (KBKW)
Temperature  
Mean Temperature 78 °F -  
Max Temperature 89 °F 77 °F 95 °F (1926)
Min Temperature 67 °F 58 °F 36 °F (1956)
Cooling Degree Days 13    
Growing Degree Days 28 (Base 50)    
Moisture  
Dew Point 69 °F    
Average Humidity 86    
Maximum Humidity 98    
Minimum Humidity 48    
Precipitation  
Precipitation 0.00 in - - ()
Sea Level Pressure  
Sea Level Pressure 30.10 in    
Wind  
Wind Speed - (North)    
Max Wind Speed -    
Max Gust Speed -    
Visibility 8 miles    
Events Fog , Rain    
Averages and records for this station are not official NWS values.
T = Trace of Precipitation, MM = Missing Value Source: NWS Daily Summary

Daily Weather History Graph

Daily Weather History Graph

Search for Another Location

Airport or City:

Astronomy

Aug. 22, 2019 Rise Set
Actual Time 6:47 AM EDT 8:09 PM EDT
Civil Twilight 6:20 AM EDT 8:37 PM EDT
Nautical Twilight 5:47 AM EDT 9:09 PM EDT
Astronomical Twilight 5:13 AM EDT 9:44 PM EDT
Moon No Moon Rise 1:14 PM EDT (8/22)
Length of Visible Light 14h 16m
Length of Day
13h 22m
Waning Gibbous, 60% of the Moon is Illuminated
Aug 22
Waning Gibbous
Aug 23
Last Quarter
Aug 30
New
Sep 5
First Quarter
Sep 14
Full

Hourly Weather History & Observations

Time (EDT) Temp. Heat Index Dew Point Humidity Pressure Visibility Wind Dir Wind Speed Gust Speed Precip Events Conditions
12:15 AM 69.4 °F - 68.4 °F 96% 30.12 in 10.0 mi North - - N/A   Clear
12:35 AM 69.1 °F - 68.2 °F 97% 30.12 in 7.0 mi North - - N/A   Clear
12:55 AM 69.1 °F - 68.4 °F 98% 30.12 in 7.0 mi North - - N/A   Clear
1:15 AM 68.9 °F - 68.2 °F 98% 30.11 in 7.0 mi North - - N/A   Clear
1:35 AM 68.7 °F - 68.0 °F 98% 30.10 in 7.0 mi North - - N/A   Clear
1:55 AM 68.5 °F - 67.6 °F 97% 30.09 in 7.0 mi North - - N/A   Clear
2:15 AM 68.9 °F - 68.0 °F 97% 30.08 in 7.0 mi North - - N/A   Scattered Clouds
2:35 AM 68.2 °F - 67.3 °F 97% 30.08 in 7.0 mi North - - N/A   Scattered Clouds
2:55 AM 68.0 °F - 67.1 °F 97% 30.07 in 7.0 mi North - - N/A   Clear
3:15 AM 68.0 °F - 67.1 °F 97% 30.08 in 7.0 mi North - - N/A   Scattered Clouds
3:35 AM 68.0 °F - 67.1 °F 97% 30.09 in 7.0 mi North - - N/A   Scattered Clouds
3:55 AM 67.8 °F - 66.9 °F 97% 30.09 in 7.0 mi North - - N/A   Scattered Clouds
4:15 AM 67.5 °F - 66.6 °F 97% 30.09 in 7.0 mi North - - N/A   Clear
4:35 AM 67.5 °F - 66.6 °F 97% 30.09 in 7.0 mi North - - N/A   Clear
4:55 AM 67.3 °F - 66.4 °F 97% 30.10 in 7.0 mi North - - N/A   Clear
5:15 AM 67.1 °F - 66.2 °F 97% 30.10 in 7.0 mi North - - N/A   Scattered Clouds
5:35 AM 67.3 °F - 66.4 °F 97% 30.11 in 7.0 mi North - - N/A   Mostly Cloudy
6:15 AM 67.1 °F - 66.2 °F 97% 30.11 in 10.0 mi North - - N/A   Scattered Clouds
6:35 AM 67.5 °F - 66.6 °F 97% 30.12 in 10.0 mi North - - N/A   Mostly Cloudy
6:55 AM 67.1 °F - 66.2 °F 97% 30.12 in 7.0 mi North - - N/A   Scattered Clouds
7:15 AM 67.1 °F - 66.2 °F 97% 30.12 in 5.0 mi North - - N/A   Scattered Clouds
7:35 AM 67.3 °F - 66.4 °F 97% 30.12 in 5.0 mi North - - N/A   Scattered Clouds
7:55 AM 68.2 °F - 67.3 °F 97% 30.12 in 10.0 mi North - - N/A   Scattered Clouds
8:15 AM 69.6 °F - 68.4 °F 96% 30.12 in 10.0 mi North - - N/A   Scattered Clouds
8:35 AM 70.7 °F - 68.7 °F 93% 30.11 in 10.0 mi North - - N/A   Clear
8:55 AM 72.7 °F - 69.4 °F 90% 30.12 in 10.0 mi North - - N/A   Mostly Cloudy
9:15 AM 74.8 °F - 70.7 °F 87% 30.12 in 10.0 mi North - - N/A   Mostly Cloudy
9:35 AM 76.5 °F - 71.1 °F 83% 30.12 in 10.0 mi North - - N/A   Scattered Clouds
9:55 AM 79.9 °F - 70.7 °F 73% 30.13 in 10.0 mi North - - N/A   Mostly Cloudy
10:15 AM 78.1 °F - 72.0 °F 81% 30.14 in 10.0 mi North - - N/A   Overcast
10:35 AM 79.0 °F - 70.9 °F 76% 30.14 in 10.0 mi North - - N/A   Overcast
10:55 AM 80.8 °F 84.4 °F 70.7 °F 71% 30.14 in 10.0 mi North - - N/A   Mostly Cloudy
11:15 AM 81.9 °F 85.0 °F 68.7 °F 64% 30.14 in 10.0 mi North - - N/A   Mostly Cloudy
11:35 AM 84.2 °F 87.1 °F 67.6 °F 57% 30.13 in 10.0 mi North - - N/A   Scattered Clouds
11:55 AM 84.7 °F 87.4 °F 66.7 °F 55% 30.13 in 10.0 mi North - - N/A   Clear
12:15 PM 86.2 °F 88.4 °F 66.2 °F 51% 30.12 in 10.0 mi North - - N/A   Clear
12:35 PM 85.8 °F 87.6 °F 64.9 °F 50% 30.12 in 10.0 mi North - - N/A   Clear
12:55 PM 86.2 °F 88.8 °F 66.6 °F 52% 30.11 in 10.0 mi North - - N/A   Clear
1:15 PM 86.9 °F 89.6 °F 66.7 °F 51% 30.11 in 10.0 mi North - - N/A   Clear
1:35 PM 89.2 °F 92.4 °F 67.5 °F 48% 30.10 in 10.0 mi North - - N/A   Clear
1:55 PM 88.5 °F 91.6 °F 66.9 °F 49% 30.09 in 10.0 mi North - - N/A   Clear
2:15 PM 89.6 °F 93.9 °F 68.5 °F 50% 30.09 in 10.0 mi North - - N/A   Scattered Clouds
2:35 PM 89.6 °F 93.4 °F 68.2 °F 49% 30.07 in 10.0 mi North - - N/A   Mostly Cloudy
2:55 PM 86.0 °F 90.7 °F 70.0 °F 59% 30.07 in 10.0 mi North - - N/A   Mostly Cloudy
3:15 PM 76.6 °F - 69.3 °F 78% 30.13 in 4.0 mi North - - N/A Rain Heavy Rain
3:35 PM 71.6 °F - 69.1 °F 92% 30.11 in 3.0 mi North - - N/A Rain Rain
3:55 PM 72.1 °F - 70.7 °F 95% 30.09 in 4.0 mi North - - N/A Rain Rain
4:15 PM 73.2 °F - 71.2 °F 93% 30.09 in 10.0 mi North - - N/A Rain Light Rain
4:35 PM 73.9 °F - 71.8 °F 93% 30.09 in 10.0 mi North - - N/A   Clear
4:55 PM 74.5 °F - 69.8 °F 85% 30.09 in 10.0 mi North - - N/A   Clear
5:15 PM 76.3 °F - 70.7 °F 83% 30.09 in 10.0 mi North - - N/A   Scattered Clouds
5:35 PM 76.5 °F - 71.4 °F 84% 30.09 in 10.0 mi North - - N/A   Scattered Clouds
5:55 PM 77.0 °F - 71.4 °F 83% 30.09 in 10.0 mi North - - N/A   Scattered Clouds
6:15 PM 74.5 °F - 72.5 °F 94% 30.08 in 7.0 mi North - - N/A   Clear
6:35 PM 74.3 °F - 72.7 °F 95% 30.09 in 7.0 mi North - - N/A   Clear
6:55 PM 74.7 °F - 73.4 °F 96% 30.09 in 7.0 mi North - - N/A   Clear
7:15 PM 74.5 °F - 73.4 °F 96% 30.08 in 10.0 mi North - - N/A   Clear
7:35 PM 74.7 °F - 73.2 °F 95% 30.08 in 10.0 mi North - - N/A   Clear
7:55 PM 73.9 °F - 72.7 °F 96% 30.08 in 7.0 mi North - - N/A   Scattered Clouds
8:15 PM 73.4 °F - 72.5 °F 97% 30.08 in 7.0 mi North - - N/A   Scattered Clouds
8:35 PM 73.4 °F - 72.5 °F 97% 30.08 in 7.0 mi North - - N/A Rain Rain
8:55 PM 72.7 °F - 71.6 °F 96% 30.09 in 5.0 mi North - - N/A   Scattered Clouds
9:15 PM 73.0 °F - 72.0 °F 96% 30.08 in 7.0 mi North - - N/A   Mostly Cloudy
9:35 PM 72.5 °F - 71.2 °F 96% 30.09 in 5.0 mi North - - N/A   Mostly Cloudy
9:55 PM 72.3 °F - 71.2 °F 96% 30.09 in 2.5 mi North - - N/A   Overcast
10:15 PM 72.5 °F - 71.2 °F 96% 30.10 in 0.8 mi North - - N/A   Overcast
10:35 PM 72.3 °F - 71.4 °F 97% 30.11 in 0.8 mi North - - N/A   Overcast
10:55 PM 72.5 °F - 71.6 °F 97% 30.10 in 1.0 mi North - - N/A   Overcast
11:15 PM 72.3 °F - 71.4 °F 97% 30.10 in 0.2 mi North - - N/A Fog Fog
11:35 PM 72.5 °F - 71.6 °F 97% 30.10 in 0.5 mi North - - N/A Fog Fog
11:55 PM 72.5 °F - 71.6 °F 97% 30.10 in 0.5 mi North - - N/A Fog Fog